Location: El Mouella
(16.4949°N, 9.1594°W)
Time: 14:22:14
(UTC+00:00)

ATLAS 2AS CENTAUR R/B - Pass Details

Date: 02 June 2020
Orbit: 925 x 1286 km, 63.7° (Epoch: 24 June)

Event Time Altitude Azimuth Distance (km) Brightness Sun altitude
Exits shadow 23:02:03 31° 297° (WNW) 2,060 4.4 -45.0°
Maximum altitude 23:02:17 31° 300° (WNW) 2,059 4.4 -45.0°
Drops below altitude 10° 23:09:11 10° 359° (N) 3,284 5.7 -45.9°
Sets 23:12:26 0° 10° (N) 4,251 6.3 -46.2°
